Weather in Kiparisovo 2

Russia / Primorsky Krai     43°26′47″N   131°55′54″E
temp.,
°C
wind,
m/s
gust,
m/s
humid.,
%
clouds,
%
prec.,
mm/h
press.,
hPa
HPBL,
m
25 may, wed
wed2501:00+12s2499100 0.1 100887
04:00+11s119977 0.2 100823
07:00+11sse1299100 0.0 1008137
10:00+16w118757 0.0 1008283
13:00+23sw1155100 0.0 1005755
16:00+22ssw3358100 0.0 1004520
19:00+18sw117432 0.0 1005235
22:00+13n119782 0.0 100618
26 may, thu
thu2601:00+12s1199100 0.0 100533
04:00+12ssw119795 0.6 100411
07:00+13nne1296100 1.1 1003107
10:00+15s368896 1.9 1002554
13:00+13sse3998100 7.1 1002509
16:00+15s598999 11.1 1001704
19:00+13ssw269594 1.1 1001422
22:00+12s2109731 1.9 1002479
27 may, fri
fri2701:00+11s289755 0.3 1001356
04:00+10ese119838 0.4 100114
07:00+11se0196100 0.2 100169
10:00+12s1894100 1.2 1001507
13:00+13wnw1192100 1.1 1000211
16:00+12n1297100 2.3 999116
19:00+13nne2293100 0.6 99951
22:00+11nnw2297100 1.3 99942
28 may, sat
sat2801:00+11n2598100 0.3 999189
04:00+11nnw2398100 0.6 999108
07:00+12nnw259742 0.1 1000190
10:00+15nnw247810 0.1 1001593
13:00+21nnw23500 0.0 10001433
16:00+22ssw335124 0.0 10001119
19:00+16s3968100 0.0 1001353
22:00+12sse3109450 0.2 1002271
29 may, sun
sun2901:00+11sse31097100 0.3 1003294
04:00+11sse3997100 0.3 1003248
07:00+12sse2893100 0.0 1003253
10:00+17s5873100 0.0 1003566
13:00+19ssw6966100 0.0 1004560
16:00+14sse3991100 0.4 1003278
19:00+14ssw61183100 0.0 1006509
22:00+12ssw3988100 0.0 1006316